RA73750 UTAA-VRMM

Flight info

Callsign RA73750
Flight time 5h 5m
Altitude 47000
Route KEMOR B449 RANAH L750 ZB G202 RK P628 VIKIT DCT ABVUL Z8 AAE R458 BBB A474 OPIRA T5 OSUPI DCT POXOD R329 MUNUT
Aircraft C750/M-SABDGRWY/H

Departure

Time 2026-04-24 17:06
Airport Ashgabat International Airport (UTAA)

Arrival

Time 2026-04-24 22:12
Airport Velana International Airport (VRMM)
Time Latitude Longitude Altitude Speed Heading
2026-04-24 16:45 37.97625 58.37719 674 ft 0 kts 297°
2026-04-24 16:58 37.97622 58.37726 674 ft 3 kts 297°
2026-04-24 16:59 37.97614 58.37748 674 ft 3 kts 297°
2026-04-24 16:59 37.97605 58.37769 674 ft 3 kts 297°
2026-04-24 16:59 37.97589 58.37808 674 ft 3 kts 297°
2026-04-24 17:00 37.97580 58.37828 674 ft 3 kts 281°
2026-04-24 17:00 37.97582 58.37849 674 ft 0 kts 237°
2026-04-24 17:02 37.97565 58.37819 674 ft 6 kts 225°
2026-04-24 17:02 37.97519 58.37784 674 ft 9 kts 211°
2026-04-24 17:02 37.97456 58.37739 674 ft 11 kts 211°
2026-04-24 17:02 37.97412 58.37681 674 ft 10 kts 282°
2026-04-24 17:03 37.97489 58.37494 674 ft 13 kts 277°
2026-04-24 17:03 37.97446 58.37426 674 ft 11 kts 210°
2026-04-24 17:03 37.97373 58.37371 674 ft 14 kts 211°
2026-04-24 17:04 37.97344 58.37285 674 ft 11 kts 301°
2026-04-24 17:04 37.97391 58.37189 675 ft 0 kts 301°
2026-04-24 17:05 37.97392 58.37187 675 ft 3 kts 301°
2026-04-24 17:05 37.97866 58.36103 678 ft 146 kts 299°
2026-04-24 17:06 37.98397 58.34920 980 ft 159 kts 298°
2026-04-24 17:06 37.99457 58.32382 2092 ft 166 kts 298°
2026-04-24 17:06 38.00024 58.31093 2547 ft 179 kts 298°
2026-04-24 17:07 38.00459 58.30116 2635 ft 203 kts 298°
2026-04-24 17:07 38.01486 58.27782 2881 ft 248 kts 298°
2026-04-24 17:07 38.04167 58.24694 4004 ft 272 kts 339°
2026-04-24 17:08 38.07896 58.24929 5535 ft 280 kts 26°
2026-04-24 17:08 38.09419 58.26428 6236 ft 284 kts 50°
2026-04-24 17:08 38.10362 58.28616 6928 ft 286 kts 74°
2026-04-24 17:09 38.10087 58.33585 8509 ft 288 kts 107°
2026-04-24 17:09 38.09057 58.38583 10028 ft 297 kts 107°
2026-04-24 17:10 38.08527 58.41215 10278 ft 319 kts 107°
2026-04-24 17:10 38.06714 58.50164 11184 ft 362 kts 106°
2026-04-24 17:11 38.04799 58.59556 12890 ft 373 kts 106°
2026-04-24 17:12 38.01461 58.75843 15536 ft 389 kts 106°
2026-04-24 18:54 28.29968 70.40339 46786 ft 530 kts 115°
2026-04-24 18:55 28.26329 70.51824 46800 ft 530 kts 110°
2026-04-24 18:56 28.23271 70.59160 46795 ft 529 kts 120°
2026-04-24 18:56 28.19859 70.66344 46793 ft 528 kts 116°
2026-04-24 18:57 28.16901 70.73838 46792 ft 527 kts 116°
2026-04-24 18:57 28.13673 70.80930 46786 ft 525 kts 117°
2026-04-24 18:58 28.10610 70.88319 46786 ft 524 kts 116°
2026-04-24 18:58 28.07451 70.95483 46791 ft 522 kts 118°
2026-04-24 18:59 28.04351 71.02730 46792 ft 522 kts 116°
2026-04-24 18:59 28.01248 71.09887 46790 ft 521 kts 117°
2026-04-24 19:00 27.98161 71.16978 46792 ft 521 kts 116°
2026-04-24 19:00 27.95055 71.24177 46791 ft 521 kts 117°
2026-04-24 19:01 27.91910 71.31352 46793 ft 521 kts 117°
2026-04-24 19:01 27.88784 71.38571 46792 ft 520 kts 117°
2026-04-24 19:02 27.86119 71.44484 46790 ft 520 kts 120°
2026-04-24 19:02 27.82321 71.52650 46800 ft 520 kts 118°
2026-04-24 19:03 27.78997 71.59709 46802 ft 519 kts 119°
2026-04-24 19:03 27.75679 71.66783 46803 ft 519 kts 118°
2026-04-24 19:04 27.72432 71.73699 46802 ft 518 kts 119°
2026-04-24 19:04 27.69001 71.80745 46776 ft 517 kts 124°
2026-04-24 19:05 27.64542 71.86562 46789 ft 512 kts 141°
2026-04-24 19:05 27.58653 71.90783 46792 ft 506 kts 159°
2026-04-24 19:06 27.53252 71.92628 46804 ft 501 kts 173°
2026-04-24 19:06 27.46535 71.92936 46830 ft 496 kts 185°
2026-04-24 19:07 27.39757 71.92606 46804 ft 498 kts 183°
2026-04-24 19:07 27.32971 71.93294 46807 ft 502 kts 173°
2026-04-24 19:08 27.26217 71.94416 46807 ft 501 kts 177°
2026-04-24 19:08 27.19464 71.94946 46807 ft 500 kts 177°
2026-04-24 19:09 27.12682 71.95894 46810 ft 500 kts 176°
2026-04-24 19:09 27.05926 71.96563 46806 ft 499 kts 177°
2026-04-24 19:10 26.99209 71.97394 46804 ft 499 kts 176°
2026-04-24 19:10 26.92499 71.98136 46801 ft 498 kts 178°
2026-04-24 19:11 26.85774 71.98910 46807 ft 499 kts 176°
2026-04-24 19:11 26.78958 71.99697 46805 ft 498 kts 177°
2026-04-24 19:12 26.72287 72.00445 46804 ft 499 kts 176°
2026-04-24 19:12 26.65566 72.01226 46805 ft 500 kts 177°
2026-04-24 19:13 26.59880 72.01859 46805 ft 501 kts 177°
2026-04-24 19:13 26.51982 72.02770 46798 ft 502 kts 177°
2026-04-24 19:14 26.45206 72.03532 46796 ft 502 kts 177°
2026-04-24 19:14 26.38447 72.04305 46799 ft 503 kts 176°
2026-04-24 19:15 26.31592 72.05078 46792 ft 504 kts 176°
2026-04-24 19:15 26.24748 72.05856 46792 ft 506 kts 176°
2026-04-24 19:16 26.14490 72.07014 46794 ft 507 kts 176°
2026-04-24 19:16 26.07726 72.07778 46792 ft 506 kts 176°
2026-04-24 19:17 26.00801 72.08558 46788 ft 505 kts 176°
2026-04-24 19:17 25.93998 72.09325 46782 ft 504 kts 176°
2026-04-24 19:18 25.87298 72.10078 46787 ft 503 kts 176°
2026-04-24 19:18 25.80412 72.10852 46786 ft 503 kts 176°
2026-04-24 19:19 25.73700 72.11605 46789 ft 503 kts 176°
2026-04-24 19:19 25.66942 72.12364 46784 ft 503 kts 176°
2026-04-24 19:20 25.60193 72.13142 46789 ft 503 kts 176°
2026-04-24 19:20 25.53429 72.13914 46782 ft 502 kts 176°
2026-04-24 19:21 25.46583 72.14697 46782 ft 502 kts 176°
2026-04-24 19:21 25.39839 72.15468 46782 ft 502 kts 176°
2026-04-24 19:22 25.32975 72.16250 46793 ft 502 kts 176°
2026-04-24 19:22 25.26274 72.17014 46793 ft 502 kts 176°
2026-04-24 19:23 25.19519 72.17782 46795 ft 502 kts 176°
2026-04-24 19:23 25.12757 72.18552 46797 ft 502 kts 176°
2026-04-24 19:24 25.05932 72.19326 46794 ft 503 kts 176°
2026-04-24 19:24 24.99161 72.20154 46779 ft 504 kts 173°
2026-04-24 19:25 24.92482 72.21687 46808 ft 505 kts 170°
2026-04-24 19:25 24.85731 72.23166 46818 ft 505 kts 172°
2026-04-24 19:26 24.78954 72.24666 46814 ft 506 kts 170°
2026-04-24 19:26 24.72257 72.26174 46821 ft 506 kts 171°
2026-04-24 19:27 24.65572 72.27650 46819 ft 506 kts 171°
2026-04-24 19:27 24.58768 72.29184 46820 ft 505 kts 171°
2026-04-24 19:28 24.52080 72.30659 46817 ft 505 kts 171°
2026-04-24 19:28 24.45413 72.32155 46815 ft 505 kts 171°
2026-04-24 19:29 24.35330 72.34389 46823 ft 505 kts 171°
2026-04-24 19:30 24.28559 72.35893 46821 ft 505 kts 171°
2026-04-24 19:30 24.21856 72.37377 46826 ft 505 kts 171°
2026-04-24 19:31 24.15109 72.38873 46818 ft 505 kts 171°
2026-04-24 19:31 24.08408 72.40354 46815 ft 505 kts 171°
2026-04-24 19:32 24.01644 72.41849 46814 ft 505 kts 171°
2026-04-24 19:32 23.94960 72.43344 46815 ft 505 kts 171°
2026-04-24 19:33 23.88289 72.44834 46812 ft 505 kts 171°
2026-04-24 19:33 23.81553 72.46333 46817 ft 505 kts 171°
2026-04-24 19:34 23.74797 72.47839 46811 ft 504 kts 171°
2026-04-24 19:34 23.68055 72.49337 46810 ft 504 kts 171°
2026-04-24 19:35 23.61323 72.50834 46812 ft 504 kts 171°
2026-04-24 19:35 23.54595 72.52326 46809 ft 504 kts 171°
2026-04-24 19:36 23.47990 72.53792 46812 ft 504 kts 171°
2026-04-24 19:36 23.41204 72.55294 46812 ft 503 kts 171°
2026-04-24 19:37 23.34607 72.56754 46811 ft 503 kts 171°
2026-04-24 19:37 23.27938 72.58228 46817 ft 503 kts 171°
2026-04-24 19:38 23.21162 72.59724 46822 ft 503 kts 171°
2026-04-24 19:38 23.14455 72.61204 46823 ft 503 kts 171°
2026-04-24 19:39 23.07784 72.62255 46822 ft 498 kts 181°
2026-04-24 19:39 23.01157 72.61308 46821 ft 492 kts 198°
2026-04-24 19:40 22.94930 72.58907 46834 ft 490 kts 204°
2026-04-24 19:40 22.88558 72.56641 46835 ft 494 kts 197°
2026-04-24 19:41 22.82091 72.54633 46825 ft 493 kts 201°
2026-04-24 19:41 22.75720 72.52352 46822 ft 494 kts 199°
2026-04-24 19:42 22.69362 72.50346 46822 ft 494 kts 200°
2026-04-24 19:42 22.62917 72.48097 46819 ft 493 kts 199°
2026-04-24 19:43 22.56473 72.46011 46815 ft 493 kts 199°
2026-04-24 19:43 22.50211 72.43878 46814 ft 493 kts 200°
2026-04-24 19:44 22.43784 72.41760 46809 ft 493 kts 199°
2026-04-24 19:44 22.37448 72.39637 46813 ft 493 kts 200°
2026-04-24 19:45 22.30959 72.37482 46809 ft 494 kts 199°
2026-04-24 19:45 22.24531 72.35345 46809 ft 494 kts 199°
2026-04-24 19:46 22.18176 72.33232 46807 ft 495 kts 199°
2026-04-24 19:46 22.11660 72.31073 46807 ft 495 kts 199°
2026-04-24 19:47 22.05290 72.28959 46807 ft 495 kts 199°
2026-04-24 19:47 21.98887 72.26841 46805 ft 495 kts 199°
2026-04-24 19:48 21.92419 72.24698 46807 ft 495 kts 199°
2026-04-24 19:48 21.82888 72.21549 46807 ft 495 kts 199°
2026-04-24 19:49 21.76263 72.19791 46808 ft 498 kts 188°
2026-04-24 19:49 21.69506 72.20045 46812 ft 503 kts 171°
2026-04-24 19:50 21.56377 72.23999 46823 ft 505 kts 169°
2026-04-24 19:51 21.46279 72.26466 46823 ft 507 kts 166°
2026-04-24 19:52 21.36366 72.29011 46814 ft 506 kts 169°
2026-04-24 19:52 21.29698 72.30829 46810 ft 506 kts 167°
2026-04-24 19:53 21.24109 72.32253 46812 ft 505 kts 169°
2026-04-24 19:54 21.14066 72.34880 46807 ft 505 kts 168°
2026-04-24 19:54 21.06406 72.36827 46809 ft 505 kts 168°
2026-04-24 19:55 21.01850 72.38026 46809 ft 505 kts 167°
2026-04-24 19:55 20.93090 72.40284 46808 ft 504 kts 168°
2026-04-24 19:56 20.87579 72.41705 46815 ft 504 kts 168°
2026-04-24 19:56 20.80752 72.43451 46814 ft 504 kts 168°
2026-04-24 19:57 20.74129 72.45148 46815 ft 504 kts 168°
2026-04-24 19:57 20.67475 72.46853 46816 ft 503 kts 168°
2026-04-24 19:58 20.60936 72.48549 46813 ft 503 kts 168°
2026-04-24 19:58 20.54280 72.50258 46813 ft 502 kts 168°
2026-04-24 19:59 20.47568 72.51990 46827 ft 502 kts 168°
2026-04-24 19:59 20.41071 72.53659 46822 ft 502 kts 168°
2026-04-24 20:00 20.34492 72.55352 46824 ft 502 kts 168°
2026-04-24 20:00 20.27824 72.57063 46820 ft 501 kts 168°
2026-04-24 20:01 20.21183 72.58767 46821 ft 501 kts 168°
2026-04-24 20:01 20.14587 72.60458 46822 ft 500 kts 168°
2026-04-24 20:02 20.08013 72.62142 46821 ft 500 kts 168°
2026-04-24 20:02 20.01476 72.63815 46823 ft 500 kts 168°
2026-04-24 20:03 19.94916 72.65492 46823 ft 500 kts 168°
2026-04-24 20:03 19.88288 72.67185 46818 ft 500 kts 168°
2026-04-24 20:04 19.81740 72.68857 46822 ft 500 kts 168°
2026-04-24 20:04 19.75217 72.70520 46826 ft 500 kts 168°
2026-04-24 20:05 19.68508 72.72230 46829 ft 500 kts 168°
2026-04-24 20:05 19.61999 72.73887 46819 ft 499 kts 168°
2026-04-24 20:06 19.55334 72.75582 46820 ft 499 kts 168°
2026-04-24 20:06 19.48977 72.77198 46825 ft 498 kts 168°
2026-04-24 20:07 19.43453 72.78601 46817 ft 498 kts 168°
2026-04-24 20:07 19.35758 72.80554 46830 ft 497 kts 168°
2026-04-24 20:08 19.29209 72.82214 46836 ft 497 kts 168°
2026-04-24 20:08 19.22623 72.83883 46820 ft 497 kts 168°
2026-04-24 20:09 19.16089 72.85537 46820 ft 496 kts 168°
2026-04-24 20:09 19.09434 72.86524 46819 ft 490 kts 182°
2026-04-24 20:10 19.02959 72.85433 46825 ft 485 kts 200°
2026-04-24 20:10 18.96942 72.82715 46837 ft 483 kts 207°
2026-04-24 20:11 18.90963 72.79923 46826 ft 485 kts 201°
2026-04-24 20:11 18.84726 72.77588 46832 ft 485 kts 203°
2026-04-24 20:12 18.78668 72.74891 46825 ft 485 kts 203°
2026-04-24 20:12 18.72536 72.72474 46823 ft 484 kts 202°
2026-04-24 20:13 18.66465 72.69882 46821 ft 483 kts 204°
2026-04-24 20:13 18.60327 72.67385 46821 ft 483 kts 202°
2026-04-24 20:14 18.54269 72.64860 46819 ft 482 kts 203°
2026-04-24 20:14 18.48158 72.62339 46816 ft 482 kts 202°
2026-04-24 20:15 18.42080 72.59833 46814 ft 482 kts 203°
2026-04-24 20:15 18.35938 72.57292 46816 ft 482 kts 202°
2026-04-24 20:16 18.29859 72.54793 46808 ft 482 kts 203°
2026-04-24 20:16 18.23785 72.52284 46806 ft 482 kts 202°
2026-04-24 20:17 18.17649 72.49764 46809 ft 482 kts 203°
2026-04-24 20:17 18.08552 72.46020 46810 ft 482 kts 202°
2026-04-24 20:18 18.02488 72.43528 46805 ft 482 kts 202°
2026-04-24 20:18 17.96386 72.41023 46808 ft 482 kts 202°
2026-04-24 20:19 17.90354 72.38548 46806 ft 482 kts 202°
2026-04-24 20:19 17.84247 72.36045 46808 ft 481 kts 202°
2026-04-24 20:20 17.78184 72.33561 46805 ft 481 kts 202°
2026-04-24 20:20 17.72030 72.31041 46805 ft 481 kts 202°
2026-04-24 20:21 17.65936 72.28549 46802 ft 481 kts 202°
2026-04-24 20:21 17.59936 72.26096 46805 ft 480 kts 202°
2026-04-24 20:22 17.53797 72.23588 46802 ft 481 kts 202°
2026-04-24 20:22 17.47752 72.21121 46809 ft 481 kts 202°
2026-04-24 20:23 17.41651 72.18632 46809 ft 481 kts 202°
2026-04-24 20:23 17.35639 72.16182 46809 ft 482 kts 202°
2026-04-24 20:24 17.29275 72.13590 46821 ft 482 kts 202°
2026-04-24 20:24 17.23009 72.11039 46826 ft 481 kts 202°
2026-04-24 20:25 17.16796 72.08512 46823 ft 482 kts 202°
2026-04-24 20:25 17.10548 72.05973 46822 ft 481 kts 202°
2026-04-24 20:26 17.04300 72.03419 46822 ft 481 kts 203°
2026-04-24 20:26 16.98100 72.00865 46820 ft 481 kts 202°
2026-04-24 20:27 16.91861 71.98312 46820 ft 481 kts 202°
2026-04-24 20:27 16.85623 71.95752 46818 ft 480 kts 202°
2026-04-24 20:28 16.79388 71.93200 46819 ft 481 kts 202°
2026-04-24 20:28 16.73187 71.90661 46815 ft 481 kts 202°
2026-04-24 20:29 16.66946 71.88109 46819 ft 481 kts 202°
2026-04-24 20:29 16.60705 71.85558 46813 ft 481 kts 202°
2026-04-24 20:30 16.54506 71.83026 46818 ft 481 kts 202°
2026-04-24 20:30 16.48268 71.80480 46814 ft 482 kts 202°
2026-04-24 20:31 16.42302 71.78047 46819 ft 481 kts 202°
2026-04-24 20:31 16.36179 71.75551 46818 ft 481 kts 202°
2026-04-24 20:32 16.30135 71.73090 46815 ft 481 kts 202°
2026-04-24 20:32 16.24066 71.70619 46817 ft 482 kts 202°
2026-04-24 20:33 16.17990 71.68154 46817 ft 483 kts 202°
2026-04-24 20:33 16.11639 71.66765 46807 ft 487 kts 185°
2026-04-24 20:34 16.05139 71.67418 46809 ft 492 kts 168°
2026-04-24 20:34 15.98878 71.70108 46825 ft 497 kts 153°
2026-04-24 20:35 15.93165 71.73628 46837 ft 497 kts 152°
2026-04-24 20:35 15.87081 71.76683 46823 ft 495 kts 159°
2026-04-24 20:36 15.81045 71.79620 46820 ft 497 kts 154°
2026-04-24 20:36 15.75033 71.82799 46818 ft 495 kts 157°
2026-04-24 20:37 15.68920 71.85768 46817 ft 495 kts 155°
2026-04-24 20:37 15.62958 71.88886 46815 ft 494 kts 156°
2026-04-24 20:38 15.56902 71.91866 46816 ft 494 kts 156°
2026-04-24 20:38 15.50903 71.94952 46813 ft 494 kts 156°
2026-04-24 20:39 15.44822 71.97983 46812 ft 494 kts 156°
2026-04-24 20:39 15.38780 72.01053 46811 ft 494 kts 156°
2026-04-24 20:40 15.32821 72.04044 46810 ft 493 kts 157°
2026-04-24 20:40 15.26776 72.07093 46805 ft 494 kts 156°
2026-04-24 20:41 15.20845 72.10079 46806 ft 494 kts 157°
2026-04-24 20:41 15.14832 72.13101 46808 ft 494 kts 157°
2026-04-24 20:42 15.08828 72.16122 46803 ft 494 kts 157°
2026-04-24 20:42 15.02870 72.19107 46803 ft 493 kts 158°
2026-04-24 20:43 14.96513 72.21063 46793 ft 485 kts 175°
2026-04-24 20:43 14.89909 72.21519 46821 ft 482 kts 180°
2026-04-24 20:44 14.83432 72.22206 46823 ft 485 kts 175°
2026-04-24 20:44 14.77885 72.22795 46818 ft 484 kts 179°
2026-04-24 20:45 14.71365 72.23359 46817 ft 486 kts 176°
2026-04-24 20:45 14.64711 72.24092 46816 ft 485 kts 178°
2026-04-24 20:46 14.58177 72.24680 46816 ft 485 kts 177°
2026-04-24 20:46 14.51680 72.25369 46813 ft 485 kts 178°
2026-04-24 20:47 14.45090 72.25990 46812 ft 485 kts 178°
2026-04-24 20:47 14.38511 72.26660 46808 ft 485 kts 178°
2026-04-24 20:48 14.32028 72.27289 46805 ft 485 kts 178°
2026-04-24 20:48 14.25394 72.27951 46804 ft 486 kts 178°
2026-04-24 20:49 14.18900 72.28589 46808 ft 487 kts 178°
2026-04-24 20:49 14.12325 72.29239 46807 ft 488 kts 178°
2026-04-24 20:50 14.05663 72.29896 46809 ft 488 kts 178°
2026-04-24 20:50 13.99003 72.30552 46807 ft 488 kts 178°
2026-04-24 20:51 13.92533 72.31190 46800 ft 488 kts 178°
2026-04-24 20:51 13.85905 72.31842 46807 ft 487 kts 178°
2026-04-24 20:52 13.79288 72.32493 46805 ft 487 kts 178°
2026-04-24 20:52 13.72695 72.33142 46805 ft 486 kts 178°
2026-04-24 20:53 13.66109 72.33789 46805 ft 486 kts 177°
2026-04-24 20:53 13.59633 72.34425 46807 ft 486 kts 177°
2026-04-24 20:54 13.52980 72.35078 46805 ft 487 kts 177°
2026-04-24 20:54 13.46498 72.35714 46815 ft 487 kts 177°
2026-04-24 20:55 13.39842 72.36367 46815 ft 487 kts 177°
2026-04-24 20:55 13.33249 72.37013 46810 ft 487 kts 177°
2026-04-24 20:56 13.26710 72.37654 46811 ft 487 kts 177°
2026-04-24 20:56 13.20111 72.38300 46808 ft 487 kts 177°
2026-04-24 20:57 13.13572 72.38940 46809 ft 487 kts 177°
2026-04-24 20:57 13.06896 72.39593 46809 ft 487 kts 177°
2026-04-24 20:58 13.00413 72.40226 46808 ft 487 kts 177°
2026-04-24 20:58 12.93746 72.40878 46809 ft 487 kts 177°
2026-04-24 20:59 12.87187 72.41518 46801 ft 487 kts 177°
2026-04-24 20:59 12.80590 72.42162 46807 ft 487 kts 177°
2026-04-24 21:00 12.74054 72.42799 46804 ft 487 kts 177°
2026-04-24 21:00 12.67438 72.43444 46802 ft 486 kts 176°
2026-04-24 21:01 12.60893 72.44082 46804 ft 486 kts 176°
2026-04-24 21:01 12.54326 72.44722 46805 ft 486 kts 176°
2026-04-24 21:02 12.47835 72.45353 46802 ft 486 kts 176°
2026-04-24 21:02 12.41409 72.45979 46809 ft 485 kts 176°
2026-04-24 21:03 12.34696 72.46631 46809 ft 485 kts 176°
2026-04-24 21:03 12.28165 72.47266 46808 ft 485 kts 176°
2026-04-24 21:04 12.21554 72.47908 46809 ft 485 kts 176°
2026-04-24 21:04 12.15036 72.48541 46809 ft 486 kts 176°
2026-04-24 21:05 12.08578 72.49168 46807 ft 486 kts 176°
2026-04-24 21:05 12.02038 72.49802 46806 ft 487 kts 176°
2026-04-24 21:06 11.95477 72.50438 46804 ft 487 kts 176°
2026-04-24 21:06 11.88870 72.51079 46807 ft 487 kts 176°
2026-04-24 21:07 11.82260 72.51719 46806 ft 488 kts 176°
2026-04-24 21:07 11.75623 72.52361 46808 ft 488 kts 176°
2026-04-24 21:08 11.69051 72.52997 46808 ft 488 kts 176°
2026-04-24 21:08 11.62484 72.53632 46806 ft 488 kts 176°
2026-04-24 21:09 11.55854 72.54273 46807 ft 488 kts 176°
2026-04-24 21:09 11.49299 72.54907 46808 ft 488 kts 176°
2026-04-24 21:10 11.42681 72.55546 46804 ft 488 kts 176°
2026-04-24 21:10 11.36168 72.56175 46804 ft 488 kts 176°
2026-04-24 21:11 11.29589 72.56809 46803 ft 488 kts 176°
2026-04-24 21:11 11.22940 72.57451 46808 ft 487 kts 176°
2026-04-24 21:12 11.17526 72.57973 46808 ft 487 kts 176°
2026-04-24 21:12 11.09754 72.58721 46809 ft 487 kts 176°
2026-04-24 21:13 11.03199 72.59353 46805 ft 488 kts 176°
2026-04-24 21:13 10.96591 72.59989 46806 ft 488 kts 176°
2026-04-24 21:14 10.89972 72.60626 46807 ft 488 kts 176°
2026-04-24 21:14 10.83412 72.61257 46809 ft 488 kts 176°
2026-04-24 21:15 10.76863 72.61887 46813 ft 488 kts 176°
2026-04-24 21:15 10.70238 72.62523 46813 ft 488 kts 176°
2026-04-24 21:16 10.63608 72.63160 46810 ft 489 kts 176°
2026-04-24 21:16 10.56968 72.63798 46808 ft 489 kts 176°
2026-04-24 21:17 10.50157 72.64451 46818 ft 489 kts 176°
2026-04-24 21:17 10.44521 72.64992 46821 ft 489 kts 176°
2026-04-24 21:18 10.36642 72.65748 46820 ft 489 kts 176°
2026-04-24 21:18 10.29865 72.66397 46816 ft 488 kts 176°
2026-04-24 21:19 10.23117 72.67044 46817 ft 488 kts 176°
2026-04-24 21:19 10.16346 72.67692 46821 ft 489 kts 176°
2026-04-24 21:20 10.06183 72.68665 46816 ft 489 kts 176°
2026-04-24 21:21 9.99440 72.69310 46816 ft 488 kts 176°
2026-04-24 21:21 9.92651 72.69959 46815 ft 488 kts 176°
2026-04-24 21:22 9.85892 72.70605 46815 ft 488 kts 176°
2026-04-24 21:22 9.79167 72.71248 46817 ft 488 kts 176°
2026-04-24 21:23 9.72386 72.71895 46819 ft 487 kts 176°
2026-04-24 21:23 9.65670 72.72536 46820 ft 487 kts 176°
2026-04-24 21:24 9.59272 72.73147 46818 ft 487 kts 176°
2026-04-24 21:24 9.52560 72.73787 46812 ft 487 kts 176°
2026-04-24 21:25 9.45802 72.74432 46816 ft 487 kts 176°
2026-04-24 21:25 9.39039 72.75076 46814 ft 487 kts 176°
2026-04-24 21:26 9.32338 72.75715 46813 ft 486 kts 176°
2026-04-24 21:26 9.25590 72.76358 46812 ft 486 kts 176°
2026-04-24 21:27 9.18852 72.76999 46815 ft 486 kts 176°
2026-04-24 21:27 9.12149 72.77637 46818 ft 486 kts 176°
2026-04-24 21:28 9.05415 72.78278 46816 ft 486 kts 176°
2026-04-24 21:28 8.98675 72.78919 46811 ft 486 kts 176°
2026-04-24 21:29 8.91947 72.79558 46812 ft 486 kts 176°
2026-04-24 21:29 8.85203 72.80199 46811 ft 486 kts 176°
2026-04-24 21:30 8.78472 72.80838 46814 ft 486 kts 176°
2026-04-24 21:30 8.71767 72.81475 46817 ft 486 kts 176°
2026-04-24 21:31 8.65030 72.82115 46818 ft 487 kts 176°
2026-04-24 21:31 8.59411 72.82648 46817 ft 487 kts 176°
2026-04-24 21:32 8.51553 72.83393 46819 ft 487 kts 176°
2026-04-24 21:32 8.45900 72.83929 46818 ft 487 kts 176°
2026-04-24 21:33 8.39184 72.84566 46821 ft 487 kts 176°
2026-04-24 21:33 8.32418 72.85207 46821 ft 488 kts 176°
2026-04-24 21:34 8.25650 72.85848 46823 ft 488 kts 176°
2026-04-24 21:34 8.18878 72.86490 46821 ft 488 kts 176°
2026-04-24 21:35 8.12131 72.87128 46821 ft 488 kts 176°
2026-04-24 21:35 8.05355 72.87769 46820 ft 489 kts 176°
2026-04-24 21:36 7.98614 72.88407 46820 ft 489 kts 176°
2026-04-24 21:36 7.91820 72.89050 46821 ft 489 kts 176°
2026-04-24 21:37 7.85032 72.89691 46824 ft 489 kts 176°
2026-04-24 21:37 7.78296 72.90328 46824 ft 489 kts 176°
2026-04-24 21:38 7.71521 72.90968 46819 ft 489 kts 176°
2026-04-24 21:38 7.64734 72.91609 46821 ft 489 kts 176°
2026-04-24 21:39 7.57944 72.92250 46819 ft 489 kts 176°
2026-04-24 21:39 7.51205 72.92904 46818 ft 489 kts 174°
2026-04-24 21:40 7.44597 72.94646 46816 ft 492 kts 163°
2026-04-24 21:40 7.38226 72.96777 46823 ft 492 kts 165°
2026-04-24 21:41 7.31862 72.98700 46813 ft 493 kts 164°
2026-04-24 21:41 7.25475 73.00793 46815 ft 492 kts 164°
2026-04-24 21:42 7.19261 73.02706 46812 ft 492 kts 165°
2026-04-24 21:42 7.12868 73.04762 46814 ft 492 kts 164°
2026-04-24 21:43 7.06522 73.06747 46812 ft 492 kts 165°
2026-04-24 21:43 7.00194 73.08758 46804 ft 492 kts 164°
2026-04-24 21:44 6.93762 73.10785 46803 ft 492 kts 165°
2026-04-24 21:44 6.87483 73.12769 46802 ft 491 kts 164°
2026-04-24 21:45 6.81049 73.14801 46796 ft 491 kts 165°
2026-04-24 21:45 6.74755 73.16749 46785 ft 490 kts 167°
2026-04-24 21:46 6.68183 73.17764 46809 ft 487 kts 176°
2026-04-24 21:46 6.61516 73.18658 45929 ft 505 kts 173°
2026-04-24 21:46 6.58198 73.19207 45413 ft 510 kts 173°
2026-04-24 21:47 6.54694 73.19708 44676 ft 517 kts 174°
2026-04-24 21:47 6.51278 73.20134 43943 ft 516 kts 174°
2026-04-24 21:47 6.47716 73.20626 43331 ft 513 kts 173°
2026-04-24 21:47 6.44301 73.21154 42628 ft 511 kts 173°
2026-04-24 21:48 6.40905 73.21658 41992 ft 505 kts 173°
2026-04-24 21:48 6.37542 73.22110 41353 ft 500 kts 174°
2026-04-24 21:48 6.34220 73.22559 40711 ft 494 kts 173°
2026-04-24 21:48 6.30929 73.23041 40074 ft 489 kts 173°
2026-04-24 21:49 6.27621 73.23532 39446 ft 483 kts 173°
2026-04-24 21:49 6.24348 73.23990 38824 ft 478 kts 173°
2026-04-24 21:49 6.21225 73.24419 38171 ft 473 kts 173°
2026-04-24 21:49 6.17985 73.24881 37569 ft 464 kts 173°
2026-04-24 21:50 6.14880 73.25333 36954 ft 457 kts 173°
2026-04-24 21:50 6.11751 73.25778 36347 ft 450 kts 173°
2026-04-24 21:50 6.08656 73.26210 35756 ft 445 kts 173°
2026-04-24 21:50 6.05595 73.26643 35169 ft 443 kts 172°
2026-04-24 21:51 6.02663 73.27063 34609 ft 444 kts 172°
2026-04-24 21:51 5.99630 73.27495 34032 ft 447 kts 172°
2026-04-24 21:51 5.96531 73.27933 33404 ft 448 kts 172°
2026-04-24 21:51 5.93431 73.28372 32818 ft 450 kts 172°
2026-04-24 21:52 5.90323 73.28815 32216 ft 453 kts 172°
2026-04-24 21:52 5.87221 73.29255 31622 ft 455 kts 172°
2026-04-24 21:52 5.84085 73.29700 31021 ft 457 kts 172°
2026-04-24 21:52 5.80913 73.30150 30412 ft 459 kts 172°
2026-04-24 21:53 5.77748 73.30599 29788 ft 459 kts 172°
2026-04-24 21:53 5.74600 73.31045 29154 ft 453 kts 172°
2026-04-24 21:53 5.71494 73.31486 28556 ft 450 kts 172°
2026-04-24 21:53 5.68396 73.31925 27965 ft 448 kts 172°
2026-04-24 21:54 5.65316 73.32362 27373 ft 445 kts 172°
2026-04-24 21:54 5.62254 73.32796 26789 ft 443 kts 172°
2026-04-24 21:54 5.59215 73.33227 26208 ft 440 kts 172°
2026-04-24 21:54 5.56222 73.33651 25633 ft 438 kts 172°
2026-04-24 21:55 5.53210 73.34078 25059 ft 436 kts 172°
2026-04-24 21:55 5.50211 73.34503 24486 ft 433 kts 172°
2026-04-24 21:55 5.47221 73.34926 23916 ft 431 kts 172°
2026-04-24 21:55 5.44249 73.35345 23336 ft 429 kts 172°
2026-04-24 21:56 5.41298 73.35762 22733 ft 426 kts 172°
2026-04-24 21:56 5.38415 73.36169 22179 ft 423 kts 172°
2026-04-24 21:56 5.35492 73.36582 21626 ft 421 kts 172°
2026-04-24 21:56 5.32612 73.36990 21074 ft 417 kts 172°
2026-04-24 21:57 5.29731 73.37396 20519 ft 415 kts 172°
2026-04-24 21:57 5.26879 73.37800 19979 ft 413 kts 171°
2026-04-24 21:57 5.24067 73.38197 19435 ft 411 kts 171°
2026-04-24 21:57 5.21243 73.38596 18892 ft 408 kts 171°
2026-04-24 21:58 5.18447 73.38990 18357 ft 406 kts 171°
2026-04-24 21:58 5.15817 73.39362 17830 ft 404 kts 171°
2026-04-24 21:58 5.13062 73.39751 17303 ft 399 kts 171°
2026-04-24 21:58 5.10400 73.40127 16790 ft 395 kts 171°
2026-04-24 21:59 5.07801 73.40494 16296 ft 392 kts 171°
2026-04-24 21:59 5.05235 73.40856 15802 ft 388 kts 171°
2026-04-24 21:59 5.02568 73.41237 15291 ft 384 kts 170°
2026-04-24 21:59 5.00108 73.41823 14800 ft 379 kts 163°
2026-04-24 22:00 4.97593 73.42501 14321 ft 377 kts 164°
2026-04-24 22:00 4.95120 73.43114 13835 ft 375 kts 165°
2026-04-24 22:00 4.92627 73.43730 13311 ft 373 kts 165°
2026-04-24 22:00 4.90250 73.44348 12843 ft 369 kts 164°
2026-04-24 22:01 4.87781 73.44996 12357 ft 366 kts 164°
2026-04-24 22:01 4.85380 73.45608 11886 ft 363 kts 165°
2026-04-24 22:01 4.83118 73.46180 11445 ft 361 kts 165°
2026-04-24 22:01 4.80761 73.46785 10982 ft 358 kts 164°
2026-04-24 22:02 4.78401 73.47394 10522 ft 352 kts 164°
2026-04-24 22:02 4.76093 73.47985 10070 ft 346 kts 164°
2026-04-24 22:02 4.73933 73.48537 9637 ft 341 kts 164°
2026-04-24 22:02 4.71689 73.49112 9169 ft 335 kts 164°
2026-04-24 22:03 4.69444 73.49688 8725 ft 328 kts 164°
2026-04-24 22:03 4.67390 73.50214 8330 ft 323 kts 165°
2026-04-24 22:03 4.65261 73.50760 7914 ft 317 kts 165°
2026-04-24 22:03 4.63169 73.51296 7500 ft 309 kts 165°
2026-04-24 22:04 4.61135 73.51816 7104 ft 302 kts 165°
2026-04-24 22:04 4.59172 73.52319 6714 ft 295 kts 165°
2026-04-24 22:04 4.57251 73.52812 6339 ft 289 kts 165°
2026-04-24 22:04 4.55355 73.53124 5896 ft 283 kts 178°
2026-04-24 22:05 4.53455 73.53082 5602 ft 272 kts 181°
2026-04-24 22:05 4.51642 73.53061 5256 ft 265 kts 179°
2026-04-24 22:05 4.49877 73.53079 4913 ft 257 kts 179°
2026-04-24 22:05 4.48117 73.53087 4574 ft 250 kts 180°
2026-04-24 22:06 4.46603 73.53082 4273 ft 244 kts 180°
2026-04-24 22:06 4.44977 73.53079 3962 ft 238 kts 180°
2026-04-24 22:06 4.43290 73.53081 3647 ft 232 kts 180°
2026-04-24 22:06 4.41707 73.53082 3333 ft 228 kts 180°
2026-04-24 22:07 4.40194 73.53083 3045 ft 224 kts 180°
2026-04-24 22:07 4.38647 73.53084 2755 ft 214 kts 181°
2026-04-24 22:07 4.37259 73.53086 2460 ft 184 kts 181°
2026-04-24 22:07 4.36086 73.53089 2238 ft 158 kts 181°
2026-04-24 22:08 4.35015 73.53090 2126 ft 154 kts 181°
2026-04-24 22:08 4.33917 73.53090 2034 ft 161 kts 181°
2026-04-24 22:08 4.32806 73.53091 1995 ft 160 kts 181°
2026-04-24 22:08 4.31683 73.53093 2005 ft 161 kts 181°
2026-04-24 22:09 4.30553 73.53094 1837 ft 164 kts 181°
2026-04-24 22:09 4.29419 73.53096 1631 ft 163 kts 181°
2026-04-24 22:09 4.28288 73.53098 1411 ft 162 kts 181°
2026-04-24 22:09 4.27165 73.53099 1209 ft 160 kts 181°
2026-04-24 22:10 4.26054 73.53099 1002 ft 161 kts 181°
2026-04-24 22:10 4.24944 73.53100 810 ft 159 kts 181°
2026-04-24 22:10 4.23829 73.53096 613 ft 159 kts 181°
2026-04-24 22:10 4.22741 73.53097 416 ft 154 kts 181°
2026-04-24 22:11 4.21704 73.53098 216 ft 144 kts 182°
2026-04-24 22:11 4.20731 73.53108 65 ft 134 kts 182°
2026-04-24 22:11 4.19849 73.53113 28 ft 119 kts 182°
2026-04-24 22:11 4.19090 73.53107 15 ft 97 kts 182°
2026-04-24 22:12 4.18578 73.53105 12 ft 52 kts 180°
2026-04-24 22:12 4.18294 73.53105 10 ft 26 kts 179°
2026-04-24 22:12 4.18197 73.53065 9 ft 12 kts 262°
2026-04-24 22:12 4.18197 73.53023 10 ft 3 kts 271°
2026-04-24 22:13 4.18198 73.53010 10 ft 0 kts 271°
2026-04-24 22:13 4.18198 73.52995 10 ft 4 kts 271°
2026-04-24 22:14 4.18201 73.52956 11 ft 7 kts 290°
2026-04-24 22:14 4.18259 73.52932 12 ft 12 kts 357°
2026-04-24 22:14 4.18358 73.52930 12 ft 17 kts 359°
2026-04-24 22:14 4.18489 73.52927 12 ft 19 kts 359°
2026-04-24 22:15 4.18619 73.52924 12 ft 18 kts 359°
2026-04-24 22:15 4.18687 73.52887 13 ft 11 kts 281°
2026-04-24 22:15 4.18740 73.52856 13 ft 9 kts 360°
2026-04-24 22:15 4.18803 73.52856 12 ft 9 kts 360°
2026-04-24 22:16 4.18863 73.52856 12 ft 8 kts 360°
2026-04-24 22:16 4.18885 73.52856 12 ft 8 kts 358°
2026-04-24 22:18 4.18894 73.52856 12 ft 8 kts 358°
2026-04-24 22:18 4.18939 73.52854 12 ft 5 kts 358°
2026-04-24 22:18 4.18963 73.52854 12 ft 5 kts 358°
2026-04-24 22:19 4.18974 73.52853 12 ft 5 kts 355°
2026-04-24 22:19 4.18993 73.52835 12 ft 3 kts 278°
2026-04-24 22:19 4.18993 73.52812 12 ft 3 kts 268°
2026-04-24 22:19 4.18993 73.52793 12 ft 0 kts 268°